Regional Weather Roundup
Issued by NWS Sterling, VA

Home | Current Version | Previous Version | Graphics & Text | Print | Product List | Glossary On
Versions: 1 2 3 4 5 6 7 8 9 10 11 12 13 14 15 16 17 18 19 20 21 22 23 24 25 26 27 28 29 30 31 32 33 34 35 36 37 38 39 40 41 42 43 44 45 46 47 48 49 50
560
ASUS41 KLWX 120210
RWRLWX

REGIONAL WEATHER ROUNDUP
NATIONAL WEATHER SERVICE BALTIMORE MD/WASHINGTON DC
900 PM EST THU FEB 11 2016

Note: "FAIR" indicates few or no clouds below 12,000 feet
with no significant weather and/or obstructions to visibility.
 TC=TEMPERATURE CELSIUS

 * =Non NWS site. Station does not report precipitation (e.g. rain,
    snow, etc.), thunder, or fog.

DCZ001-MDZ009-015-VAZ040>042-051-053>054-120300-
WASHINGTON METRO

CITY           SKY/WX    TMP DP  RH WIND       PRES   REMARKS
WASHINGTON NAT FAIR      23   1  38 NW12G22   30.32R WCI  12
DULLES         FAIR      21   0  39 NW18      30.29S WCI   6
ANDREWS AFB    CLEAR     22   0  37 W14       30.29R WCI   9
FT BELVOIR     FAIR      23   0  36 NW13G21   30.32R WCI  11
QUANTICO       FAIR      25   1  35 N12       30.34R WCI  14
COLLEGE PARK*  FAIR      25   1  36 NW3       30.30R
LEESBURG*      FAIR      23   5  46 NW5       30.31R
MANASSAS*      CLEAR     19   7  58 NW5       30.31R
GAITHERSBURG*  CLEAR     19   0  42 NW14      30.30S WCI   6

$$

MDZ006>007-011-014-120300-
BALTIMORE METRO

CITY           SKY/WX    TMP DP  RH WIND       PRES   REMARKS
BWI AIRPORT    CLEAR     21   1  41 W15       30.28R WCI   8
MD SCIENCE CTR   N/A     22   0  38 MISG      30.23F
MARTIN STATE   CLEAR     23   5  46 W12G20    30.30R WCI  12
ANNAPOLIS      CLEAR     24   4  42 NW14G23   30.29R WCI  12
FORT MEADE*    CLEAR     21   1  42 W13G20    30.32R WCI   9

$$

MDZ012-015-019>023-120300-
MARYLAND EASTERN SHORE

CITY           SKY/WX    TMP DP  RH WIND       PRES   REMARKS
OCEAN CITY     CLEAR     24   4  42 NW8       30.28R WCI  15
SALISBURY      CLEAR     23   5  46 NW8       30.28R WCI  14
BAY BRIDGE AP*   N/A     25   1  36 NW17G24   30.30R WCI  11
CAMBRIDGE*     PTCLDY    25   1  36 NW14G20   30.29R WCI  13
EASTON*        CLEAR     25   3  39 NW18G28   30.31R WCI  11

$$

MDZ017>025-120300-
SOUTHERN MARYLAND

CITY           SKY/WX    TMP DP  RH WIND       PRES   REMARKS
PATUXENT RIVER PTCLDY    25   3  38 NW22G32   30.29R WCI  10
ST INIGOES     CLEAR     25   3  38 NW9G18    30.30R WCI  15
LEONARDTOWN*   CLEAR     25   0  33 NW8       30.31R WCI  16

$$

MDZ003>005-120300-
NORTH CENTRAL MARYLAND

CITY           SKY/WX    TMP DP  RH WIND       PRES   REMARKS
FREDERICK*     CLEAR     21   5  49 W9G23     30.32R WCI  11
HAGERSTOWN APT MOCLDY    19   0  43 W13       30.25R WCI   6
WESTMINSTER*   PTCLDY    18   7  62 W16G22    30.22R WCI   3

$$

MDZ501>502-120300-
WESTERN MARYLAND

CITY           SKY/WX    TMP DP  RH WIND       PRES   REMARKS
OAKLAND*       CLOUDY     5   1  85 W6        30.08R
CUMBERLAND*    CLEAR     19   1  45 W3        30.31S

$$

VAZ025>031-120300-
SHENANDOAH VALLEY

CITY           SKY/WX    TMP DP  RH WIND       PRES   REMARKS
WINCHESTER*    FAIR      19   5  53 NW10      30.27R WCI   8
FRONT ROYAL*   FAIR      21   1  42 W8        30.27R WCI  12
LURAY*         FAIR      19   1  45 SW3       30.26S
NEW MARKET*    FAIR      19   0  44 W3        30.26S
STAUNTON*      FAIR      22   3  43 CALM      30.27R
WAYNESBORO*    FAIR      17   0  46 NW7       30.23R

$$

WVZ021-048>050-054>055-120300-
EASTERN WEST VIRGINIA PANHANDLE

CITY           SKY/WX    TMP DP  RH WIND       PRES   REMARKS
MARTINSBURG    FAIR      19   0  43 NW15      30.27S WCI   5
PETERSBURG*    FAIR      19   3  49 CALM      30.28S

$$

VAZ036>039-050-120300-
CENTRAL FOOTHILLS

CITY           SKY/WX    TMP DP  RH WIND       PRES   REMARKS
CHARLOTTESVILL FAIR      22   0  38 NW3       30.29R
CULPEPER*      FAIR      22   0  38 CALM      30.32R
ORANGE*        FAIR      25   1  36 N3        30.31R
GORDONSVILLE*  FAIR      23   1  38 NW3       30.30R
WARRENTON*     FAIR      22   7  50 NW3       30.31R

$$

VAZ055>057-120300-
NORTH AND CENTRAL PIEDMONT

CITY           SKY/WX    TMP DP  RH WIND       PRES   REMARKS
FREDERICKSBRG* FAIR      24   4  42 NW5       30.31R
STAFFORD*      FAIR      21   1  42 N8        30.36R WCI  11

$$

NCZ024-NYZ072-PAZ021-071-VAZ022-071-120300-
OTHER REGIONAL OBSERVATIONS

CITY           SKY/WX    TMP DP  RH WIND       PRES   REMARKS
NEW YORK CITY  CLEAR     20  -5  33 NW14G29   30.14R WCI   7
PHILADELPHIA   PTCLDY    23  -2  33 W16G30    30.23R WCI  10
PITTSBURGH     MOCLDY    13  -2  51 W5        30.24R
ROANOKE        FAIR      22   4  46 N13       30.27R WCI  10
RICHMOND       FAIR      26   2  35 N12       30.30R WCI  16
RALEIGH        CLEAR     30  12  47 N5        30.27R

$$

ANZ530>537-120300-
MARINE OBSERVATIONS

STATION/POSITION TIME  TEMP    WIND        PRES
                       AIR SEA DIR/SP/G
                 (UTC) (F)     (DEG/KT/KT) (MB)
THOMAS PT LIGHT  0200   24 37  320/ 15/ 17 1026.6R
BALT KEY BRIDGE  0100   24                 1024.9R
COVE POINT       0100   25                 1025.6R
LEWISETTA        0100   28 40              1024.9R
SOLOMONS ISLAND  0100   26 40                N/A

$$





USA.gov is the U.S. government's official web portal to all federal, state and local government web resources and services.